{"data":{"norad_id":65765,"intl_designator":"2025-217D","name":"KUIPER-00139","alt_names":[],"object_type":"PAYLOAD","status":"ACTIVE","operator":null,"country":"US","launch_date":"2025-09-25","launch_site_code":"AFETR","launch_vehicle":null,"mission":null,"orbit_class":"UNKNOWN","rcs_meters":null,"size_class":null,"mass_kg":null,"dimensions":null,"purposes":[],"wikipedia_slug":null,"has_3d_model":false,"image_url":null,"decayed_at":null,"tle_current":{"epoch":"2026-05-25T03:36:52.215840Z","epoch_age_seconds":72154,"freshness":"FRESH","line1":"1 65765U 25217D   26145.15060435 -.00029520  00000+0 -21975-2 0  9993","line2":"2 65765  51.8843  43.6042 0007520 195.6337 164.4404 15.02295863 36505","mean_motion":15.02295863,"eccentricity":0.000752,"inclination_deg":51.8843,"raan_deg":43.6042,"arg_perigee_deg":195.6337,"mean_anomaly_deg":164.4404,"bstar":-0.0021975,"rev_number":3650,"period_min":95.853289319748,"perigee_km":554.60143162215,"apogee_km":565.0361171068,"semimajor_km":6937.9557743645,"source":"CELESTRAK","updated_at":"2026-05-25T13:38:05.658935Z"}}}